Total_Precipitation_Accumulation
0.02 0.03 0.06 0.28 0.34 1.93 1.76 2.00 3.01 2.75 2.03 1.83 2.18 2.77 2.43 0.87 0.98 1.97 1.87 1.11 1.04 0.23 0.32 0.40 0.33 0.25 1.23 0.53 0.21 0.19 0.25 0.42 0.16 1.04 0.62 0.47 0.13 0.21 0.24 0.26 0.26 0.25 0.26 0.26 0.49 0.93 0.88 0.63 0.47 0.71 0.76 0.29 0.14 0.12 0.16 0.09 0.08 0.06 0.07 0.06 0.07 0.04 0.06 0.07 0.05 0.14 0.22 0.14 0.16 0.32 0.21 0.28 0.36 0.22 0.35 0.42 0.49 0.35 0.40 0.41 0.42 0.65 0.49 0.43 0.61 0.68 0.47 0.60 0.75 0.80 0.87 0.81 0.70 0.63 0.61 0.74 0.55
0.03 0.05 0.07 0.69 1.16 3.27 2.94 1.53 1.51 1.95 1.80 2.17 1.98 1.73 1.69 1.48 1.66 1.24 1.61 1.59 0.47 0.16 0.19 0.22 0.05 0.29 0.34 0.03 0.06 0.04 0.12 0.18 0.20 0.10 0.16 0.20 0.27 0.30 0.21 0.20 0.19 0.21 0.17 0.22 0.32 0.44 0.43 0.59 0.42 0.45 0.58 0.20 0.13 0.12 0.07 0.11 0.08 0.08 0.05 0.06 0.05 0.06 0.06 0.05 0.09 0.23 0.28 0.22 0.28 0.44 0.44 0.32 0.35 0.34 0.44 0.66 0.49 0.51 0.47 0.37 0.64 0.65 0.59 0.60 0.76 0.50 0.75 0.82 0.67 0.82 0.84 0.76 0.87 0.74 0.62 0.88 0.94
0.07 0.05 0.19 0.36 1.31 1.24 2.64 1.95 2.92 2.08 2.29 1.91 2.05 2.44 1.71 1.75 1.66 1.36 1.12 1.17 0.23 0.08 0.02 0.06 0.14 0.54 0.12 0.09 0.18 0.32 0.25 0.13 0.10 0.05 0.29 0.34 0.43 0.71 0.26 0.18 0.19 0.14 0.17 0.18 0.21 0.51 0.44 0.57 0.21 0.35 0.41 0.17 0.08 0.07 0.05 0.06 0.08 0.11 0.08 0.07 0.05 0.07 0.09 0.15 0.40 0.35 0.40 0.41 0.37 0.35 0.41 0.31 0.53 0.42 0.50 0.58 0.45 0.51 0.44 0.58 0.70 0.84 0.68 0.58 0.56 0.70 0.82 0.72 0.89 0.80 1.22 0.80 0.96 0.76 0.66 0.93 1.02
0.11 0.10 0.59 0.49 2.46 2.06 3.30 2.66 1.67 2.15 2.18 1.60 1.85 1.85 2.42 2.07 1.15 1.01 0.93 0.38 0.23 0.04 0.03 0.06 0.47 0.27 0.22 0.22 0.12 0.09 0.12 0.25 0.03 0.02 0.35 0.32 0.30 0.22 0.20 0.15 0.11 0.13 0.14 0.21 0.39 0.33 0.32 0.27 0.16 0.43 0.24 0.15 0.08 0.09 0.07 0.05 0.07 0.06 0.10 0.06 0.14 0.11 0.14 0.23 0.23 0.21 0.28 0.34 0.27 0.31 0.30 0.27 0.34 0.45 0.49 0.57 0.67 0.71 0.83 0.66 0.96 0.77 0.73 0.94 0.66 1.22 0.80 0.82 0.94 1.02 0.93 0.77 0.82 0.73 0.71 0.85 0.94
0.25 0.19 0.48 0.99 1.59 2.85 2.14 2.39 2.61 2.06 2.01 2.01 2.49 2.14 1.91 1.55 1.12 0.81 0.77 0.38 0.11 0.17 0.14 0.10 0.06 0.24 0.51 0.46 0.11 0.32 0.30 0.15 0.03 0.02 0.10 0.18 0.07 0.20 0.19 0.13 0.15 0.13 0.24 0.27 0.29 0.21 0.26 0.27 0.25 0.35 0.23 0.13 0.10 0.07 0.05 0.07 0.06 0.07 0.09 0.12 0.13 0.20 0.11 0.14 0.11 0.21 0.23 0.25 0.22 0.28 0.44 0.31 0.38 0.43 0.53 0.64 0.52 0.50 0.83 0.94 0.99 0.93 1.00 1.02 1.00 0.80 0.82 0.93 0.94 0.93 0.89 0.95 0.57 0.62 0.80 0.78 0.87
0.26 0.38 0.96 1.59 4.04 2.16 1.24 1.99 2.60 2.13 1.93 1.39 2.60 1.84 1.44 1.63 1.68 0.73 0.32 0.07 0.27 0.31 0.22 0.14 0.14 0.10 0.06 0.04 0.03 0.19 0.16 0.27 0.18 0.12 0.12 0.17 0.15 0.12 0.12 0.13 0.17 0.22 0.23 0.16 0.18 0.17 0.28 0.21 0.25 0.27 0.12 0.11 0.10 0.08 0.04 0.04 0.07 0.16 0.13 0.22 0.11 0.11 0.07 0.17 0.12 0.13 0.23 0.17 0.19 0.30 0.32 0.38 0.50 0.53 0.57 0.47 0.47 0.66 0.73 0.77 0.99 0.98 0.82 1.15 1.03 0.81 0.83 1.00 0.89 0.81 0.82 0.74 0.50 0.64 0.94 0.88 0.83
0.69 1.02 1.53 1.15 1.72 2.00 2.17 2.10 1.69 1.82 1.89 1.66 2.33 1.72 2.11 1.79 1.21 0.80 0.54 0.26 0.27 0.47 0.22 0.06 0.09 0.14 0.22 0.12 0.13 0.07 0.06 0.05 0.15 0.11 0.08 0.08 0.11 0.06 0.09 0.11 0.14 0.22 0.20 0.15 0.25 0.20 0.31 0.13 0.28 0.24 0.33 0.08 0.09 0.06 0.03 0.04 0.05 0.18 0.13 0.17 0.14 0.13 0.13 0.18 0.07 0.10 0.07 0.08 0.14 0.21 0.32 0.31 0.37 0.41 0.53 0.49 0.46 0.47 0.90 0.91 0.91 0.84 0.74 0.90 0.86 0.84 0.72 0.76 0.62 0.80 0.76 0.73 0.77 0.69 0.81 0.91 0.82
0.27 1.86 2.46 2.09 2.62 1.61 2.30 1.82 1.80 1.52 1.66 2.21 1.78 1.58 1.79 2.40 1.40 1.20 0.65 0.78 0.15 0.37 0.20 0.05 0.06 0.19 0.44 0.05 0.49 0.11 0.05 0.06 0.08 0.06 0.05 0.05 0.04 0.08 0.09 0.11 0.16 0.21 0.16 0.15 0.20 0.15 0.18 0.10 0.30 0.23 0.12 0.08 0.09 0.09 0.08 0.09 0.14 0.16 0.15 0.16 0.12 0.14 0.10 0.10 0.11 0.12 0.11 0.10 0.13 0.21 0.25 0.26 0.26 0.26 0.24 0.55 0.50 0.59 0.53 0.60 0.63 0.51 0.77 0.76 0.79 0.78 0.58 0.59 0.56 0.86 0.88 0.91 0.59 0.59 0.69 0.90 1.16
0.78 0.99 1.59 1.66 2.43 2.19 1.44 1.43 1.45 1.49 1.45 1.61 1.90 2.54 2.20 1.84 1.28 1.19 1.19 0.58 0.26 0.26 0.14 0.11 0.07 0.27 0.24 0.27 0.24 0.25 0.13 0.08 0.05 0.04 0.02 0.03 0.07 0.06 0.11 0.14 0.18 0.22 0.13 0.22 0.21 0.18 0.23 0.15 0.25 0.16 0.13 0.07 0.06 0.07 0.07 0.17 0.25 0.24 0.21 0.14 0.13 0.09 0.13 0.10 0.14 0.13 0.11 0.11 0.14 0.18 0.25 0.23 0.14 0.26 0.22 0.39 0.59 0.73 0.60 0.51 0.67 0.57 0.63 0.80 0.69 0.78 0.69 0.60 0.71 0.78 0.81 0.82 0.67 0.54 0.97 0.84 0.75
1.48 0.77 3.15 1.95 1.28 2.13 0.92 1.25 1.84 2.50 3.07 1.66 2.00 2.01 2.17 1.56 1.57 1.40 0.85 0.75 0.63 0.18 0.21 0.12 0.10 0.65 0.21 0.20 0.22 0.18 0.20 0.07 0.06 0.05 0.03 0.04 0.08 0.10 0.11 0.13 0.16 0.20 0.23 0.17 0.15 0.09 0.15 0.22 0.13 0.09 0.10 0.05 0.03 0.06 0.15 0.22 0.33 0.30 0.13 0.13 0.09 0.08 0.08 0.08 0.09 0.11 0.09 0.17 0.18 0.19 0.18 0.14 0.11 0.17 0.35 0.47 0.48 0.50 0.34 0.44 0.54 0.59 0.43 0.49 0.71 0.74 0.76 0.62 0.91 0.93 0.87 0.78 0.62 0.63 0.74 0.78 0.75
2.08 0.92 1.28 1.67 2.03 1.54 1.46 0.98 1.43 1.24 1.80 1.69 1.83 2.11 2.49 1.29 1.06 1.96 1.69 1.26 0.83 0.20 0.09 0.10 0.18 0.20 0.11 0.22 0.28 0.17 0.07 0.03 0.03 0.08 0.05 0.06 0.07 0.07 0.09 0.11 0.21 0.16 0.22 0.21 0.05 0.12 0.14 0.21 0.19 0.09 0.05 0.04 0.06 0.15 0.20 0.14 0.20 0.20 0.10 0.12 0.10 0.10 0.08 0.09 0.15 0.18 0.13 0.13 0.15 0.13 0.13 0.10 0.18 0.30 0.25 0.38 0.30 0.40 0.24 0.42 0.36 0.52 0.46 0.60 0.69 0.70 0.79 0.73 0.87 1.02 0.72 0.65 0.61 0.73 0.90 0.70 0.57
1.08 1.03 1.76 2.09 2.01 1.55 1.47 1.36 1.48 1.91 1.64 2.07 2.15 2.73 1.57 1.40 1.37 1.18 1.13 0.76 0.51 0.14 0.18 0.15 0.51 0.12 0.08 0.11 0.27 0.34 0.07 0.05 0.05 0.03 0.04 0.07 0.05 0.06 0.07 0.09 0.12 0.19 0.08 0.16 0.11 0.10 0.12 0.18 0.21 0.24 0.08 0.08 0.07 0.05 0.10 0.15 0.11 0.11 0.06 0.08 0.08 0.05 0.08 0.08 0.08 0.20 0.17 0.14 0.09 0.13 0.11 0.18 0.18 0.12 0.15 0.19 0.29 0.32 0.31 0.41 0.38 0.49 0.52 0.80 0.86 0.62 0.66 0.81 0.86 0.87 0.85 0.67 0.63 0.82 1.03 0.66 0.51
0.99 0.64 2.24 1.81 1.44 1.53 1.21 1.69 1.77 1.68 1.37 1.71 2.66 1.43 1.29 0.95 1.53 1.46 1.34 1.28 0.84 0.20 0.30 0.56 0.04 0.09 0.21 0.15 0.26 0.14 0.09 0.05 0.06 0.02 0.04 0.05 0.04 0.06 0.08 0.08 0.11 0.10 0.09 0.04 0.08 0.06 0.07 0.14 0.15 0.13 0.11 0.12 0.06 0.12 0.14 0.12 0.11 0.08 0.07 0.07 0.06 0.05 0.08 0.07 0.08 0.14 0.10 0.11 0.09 0.06 0.13 0.16 0.22 0.16 0.18 0.18 0.27 0.30 0.31 0.41 0.38 0.47 0.42 0.58 0.61 0.54 0.69 0.76 0.78 1.05 0.64 0.59 0.77 0.69 1.04 0.76 0.36
0.30 0.65 1.26 1.89 1.29 1.52 1.17 1.72 1.27 1.10 1.62 1.70 2.20 1.52 1.41 1.42 1.68 1.78 1.13 1.64 0.81 0.89 0.19 0.06 0.15 0.09 0.19 0.07 0.56 0.20 0.13 0.09 0.04 0.05 0.04 0.06 0.04 0.06 0.08 0.07 0.09 0.13 0.10 0.05 0.06 0.06 0.07 0.09 0.14 0.15 0.22 0.33 0.52 0.28 0.19 0.10 0.10 0.11 0.08 0.07 0.07 0.06 0.09 0.09 0.16 0.13 0.07 0.08 0.06 0.09 0.07 0.09 0.11 0.24 0.24 0.28 0.41 0.44 0.35 0.31 0.39 0.42 0.49 0.48 0.52 0.80 0.36 0.83 0.91 0.79 0.61 0.44 0.46 0.40 0.79 0.35 0.42
0.57 0.62 0.45 0.83 1.15 0.86 0.88 1.83 1.01 0.75 2.30 2.27 1.52 1.68 1.77 1.53 1.86 1.14 1.54 0.83 0.95 0.36 0.12 0.04 0.11 0.16 0.24 0.03 0.16 0.08 0.06 0.07 0.03 0.04 0.04 0.07 0.06 0.06 0.06 0.08 0.09 0.09 0.06 0.06 0.07 0.05 0.05 0.06 0.09 0.11 0.20 0.20 0.24 0.23 0.23 0.26 0.13 0.14 0.09 0.06 0.08 0.10 0.10 0.08 0.13 0.10 0.07 0.05 0.06 0.13 0.13 0.19 0.26 0.31 0.23 0.19 0.22 0.28 0.30 0.30 0.32 0.35 0.41 0.30 0.36 0.37 0.67 0.68 0.55 0.51 0.46 0.36 0.37 0.24 0.26 0.18 0.17
0.11 0.41 0.89 1.46 1.46 1.43 0.66 0.65 1.01 0.91 1.81 2.12 1.09 1.17 1.98 1.25 1.09 1.23 1.26 1.73 0.69 0.51 0.19 0.28 0.02 0.64 0.20 0.06 0.03 0.01 0.01 0.03 0.03 0.03 0.06 0.12 0.11 0.09 0.09 0.07 0.09 0.10 0.07 0.10 0.11 0.07 0.06 0.08 0.07 0.14 0.26 0.25 0.28 0.24 0.19 0.21 0.11 0.06 0.08 0.05 0.05 0.07 0.06 0.07 0.07 0.09 0.11 0.15 0.15 0.24 0.32 0.27 0.37 0.20 0.24 0.21 0.26 0.26 0.26 0.36 0.30 0.29 0.26 0.31 0.23 0.22 0.37 0.42 0.60 0.43 0.47 0.24 0.21 0.32 0.17 0.16 0.13
0.06 0.28 0.77 0.88 1.51 1.40 0.57 0.79 0.45 2.35 0.89 1.06 0.90 1.65 1.46 1.38 1.02 1.10 0.79 0.92 0.56 0.32 0.43 0.10 0.10 0.03 0.03 0.00 0.01 0.00 0.01 0.01 0.01 0.04 0.08 0.17 0.18 0.23 0.17 0.21 0.21 0.19 0.14 0.12 0.08 0.09 0.10 0.09 0.07 0.17 0.32 0.22 0.21 0.37 0.18 0.22 0.22 0.12 0.14 0.04 0.08 0.10 0.13 0.15 0.11 0.17 0.11 0.20 0.18 0.22 0.26 0.25 0.34 0.40 0.30 0.29 0.24 0.29 0.18 0.17 0.32 0.22 0.20 0.17 0.14 0.17 0.46 0.31 0.45 0.45 0.53 0.40 0.26 0.29 0.14 0.19 0.24
0.34 0.49 0.75 0.93 1.12 1.17 0.49 0.61 0.32 0.35 1.66 0.57 0.48 0.85 1.35 1.24 0.87 1.25 0.96 0.86 1.03 0.40 0.51 0.03 0.03 0.17 0.01 0.00 0.00 0.00 0.01 0.01 0.03 0.07 0.12 0.13 0.12 0.16 0.17 0.19 0.19 0.21 0.15 0.20 0.15 0.15 0.12 0.10 0.08 0.15 0.24 0.23 0.13 0.12 0.14 0.23 0.26 0.19 0.15 0.20 0.23 0.18 0.15 0.18 0.23 0.19 0.28 0.33 0.29 0.34 0.35 0.32 0.41 0.64 0.51 0.49 0.40 0.27 0.31 0.10 0.15 0.27 0.18 0.12 0.18 0.36 0.70 0.44 0.43 0.34 0.31 0.38 0.24 0.15 0.14 0.18 0.29
0.05 0.40 0.64 1.78 0.79 0.78 0.14 0.44 0.19 1.05 1.33 0.73 0.65 0.76 1.48 1.43 1.53 0.91 0.76 0.94 0.63 0.34 0.31 0.05 0.10 0.02 0.01 0.00 0.00 0.01 0.01 0.02 0.02 0.02 0.04 0.05 0.07 0.04 0.05 0.08 0.11 0.14 0.21 0.20 0.20 0.10 0.08 0.09 0.09 0.19 0.16 0.17 0.17 0.28 0.17 0.24 0.24 0.25 0.29 0.27 0.26 0.29 0.35 0.18 0.27 0.28 0.30 0.36 0.28 0.47 0.48 0.42 0.27 0.45 0.49 0.22 0.38 0.29 0.16 0.13 0.14 0.16 0.09 0.13 0.19 0.33 0.29 0.39 0.48 0.36 0.27 0.24 0.16 0.07 0.27 0.21 0.23
0.01 0.10 0.47 0.49 0.25 0.34 0.17 0.36 0.19 0.34 0.52 0.73 0.59 0.74 1.06 1.22 1.03 0.85 1.13 0.65 0.18 0.45 0.11 0.09 0.06 0.04 0.01 0.01 0.00 0.01 0.01 0.02 0.01 0.01 0.03 0.02 0.02 0.02 0.06 0.04 0.07 0.07 0.09 0.05 0.10 0.13 0.07 0.11 0.12 0.11 0.16 0.12 0.18 0.25 0.23 0.22 0.39 0.32 0.33 0.25 0.20 0.18 0.27 0.16 0.30 0.29 0.34 0.47 0.38 0.32 0.38 0.26 0.22 0.38 0.25 0.21 0.35 0.31 0.36 0.21 0.23 0.18 0.12 0.10 0.14 0.44 0.31 0.42 0.44 0.26 0.12 0.07 0.12 0.28 0.29 0.31 0.33
0.09 0.02 0.54 0.51 0.50 0.46 0.37 0.34 0.19 0.13 0.55 0.76 0.83 0.43 0.79 0.95 1.12 1.08 0.74 0.67 0.72 0.57 0.56 0.08 0.04 0.01 0.02 0.00 0.00 0.00 0.01 0.02 0.02 0.00 0.01 0.01 0.02 0.02 0.02 0.03 0.03 0.06 0.06 0.04 0.09 0.10 0.08 0.08 0.12 0.14 0.12 0.11 0.11 0.18 0.12 0.19 0.20 0.22 0.29 0.20 0.28 0.19 0.32 0.20 0.14 0.24 0.23 0.46 0.47 0.60 0.23 0.24 0.23 0.22 0.26 0.20 0.40 0.37 0.55 0.48 0.53 0.36 0.35 0.33 0.25 0.63 0.59 0.56 0.31 0.28 0.29 0.18 0.32 0.27 0.23 0.23 0.22
0.01 0.15 0.48 0.31 0.30 0.31 0.22 0.27 0.13 0.12 0.22 0.72 0.64 0.42 0.78 0.46 0.85 0.97 1.49 1.36 1.06 0.98 0.11 0.16 0.02 0.00 0.01 0.00 0.00 0.00 0.01 0.02 0.01 0.01 0.01 0.00 0.00 0.01 0.02 0.03 0.02 0.04 0.05 0.07 0.06 0.09 0.11 0.09 0.11 0.13 0.11 0.11 0.09 0.17 0.13 0.23 0.13 0.16 0.18 0.17 0.27 0.19 0.17 0.14 0.11 0.30 0.53 0.60 0.54 0.46 0.41 0.23 0.24 0.24 0.30 0.28 0.29 0.38 0.36 0.51 0.55 0.25 0.25 0.19 0.31 0.70 0.38 0.34 0.53 0.43 0.27 0.27 0.20 0.16 0.11 0.09 0.13
0.00 0.01 0.02 0.03 0.15 0.41 0.20 0.04 0.06 0.03 0.33 0.48 0.67 0.55 0.44 0.80 1.36 0.76 0.81 1.88 1.42 1.02 0.29 0.16 0.01 0.00 0.00 0.00 0.00 0.00 0.00 0.00 0.01 0.00 0.01 0.00 0.01 0.01 0.01 0.02 0.03 0.03 0.04 0.05 0.03 0.04 0.07 0.11 0.07 0.10 0.12 0.12 0.07 0.08 0.10 0.12 0.14 0.14 0.15 0.15 0.12 0.16 0.22 0.42 0.30 0.14 0.14 0.15 0.22 0.28 0.33 0.47 0.32 0.20 0.19 0.23 0.33 0.32 0.17 0.28 0.70 0.35 0.45 0.30 0.52 0.81 0.14 0.26 0.25 0.12 0.08 0.15 0.13 0.13 0.09 0.14 0.22
0.00 0.02 0.01 0.13 0.02 0.04 0.03 0.07 0.02 0.02 0.26 0.38 0.42 0.28 0.36 0.69 0.79 0.90 0.72 0.83 0.69 0.59 0.25 0.24 0.05 0.00 0.00 0.00 0.00 0.00 0.00 0.00 0.00 0.00 0.00 0.00 0.00 0.00 0.00 0.01 0.01 0.03 0.03 0.02 0.04 0.05 0.09 0.06 0.05 0.09 0.09 0.12 0.08 0.06 0.09 0.12 0.08 0.08 0.10 0.14 0.40 0.38 0.56 0.45 0.28 0.10 0.08 0.10 0.12 0.24 0.18 0.15 0.23 0.14 0.13 0.18 0.10 0.15 0.23 0.34 0.18 0.22 0.32 0.42 0.57 0.08 0.32 0.36 0.24 0.08 0.10 0.11 0.11 0.08 0.10 0.09 0.14
0.00 0.00 0.00 0.16 0.01 0.01 0.00 0.02 0.00 0.00 0.04 0.61 0.32 0.23 0.51 0.43 0.53 0.44 1.05 0.62 0.35 0.64 0.36 0.10 0.13 0.00 0.00 0.02 0.00 0.00 0.00 0.00 0.01 0.01 0.01 0.00 0.01 0.01 0.01 0.01 0.00 0.01 0.01 0.02 0.03 0.07 0.05 0.07 0.06 0.07 0.08 0.05 0.04 0.06 0.06 0.08 0.05 0.07 0.20 0.24 0.24 0.12 0.20 0.11 0.17 0.09 0.06 0.06 0.08 0.07 0.05 0.15 0.24 0.13 0.12 0.14 0.08 0.11 0.19 0.14 0.31 0.30 0.24 0.26 0.30 0.39 0.17 0.21 0.31 0.13 0.14 0.15 0.13 0.10 0.11 0.22 0.04
0.00 0.00 0.00 0.01 0.04 0.00 0.00 0.01 0.04 0.06 0.08 0.14 0.46 0.51 0.47 0.37 0.31 1.02 1.18 0.46 0.68 0.55 0.42 0.10 0.07 0.01 0.00 0.00 0.00 0.00 0.00 0.00 0.00 0.00 0.00 0.00 0.00 0.00 0.01 0.01 0.00 0.01 0.01 0.01 0.02 0.04 0.03 0.07 0.05 0.05 0.04 0.03 0.03 0.06 0.04 0.04 0.07 0.14 0.12 0.07 0.05 0.07 0.06 0.04 0.03 0.09 0.05 0.04 0.06 0.07 0.05 0.09 0.11 0.09 0.08 0.09 0.10 0.12 0.19 0.14 0.17 0.13 0.24 0.26 0.33 0.25 0.22 0.24 0.28 0.15 0.14 0.11 0.04 0.10 0.11 0.05 0.05
0.00 0.00 0.00 0.00 0.01 0.01 0.01 0.01 0.03 0.02 0.11 0.20 0.33 0.77 0.52 0.71 0.56 1.02 0.65 0.39 0.27 0.34 0.23 0.20 0.04 0.01 0.00 0.00 0.01 0.00 0.00 0.00 0.01 0.00 0.00 0.00 0.00 0.00 0.00 0.00 0.00 0.00 0.01 0.04 0.01 0.05 0.02 0.04 0.04 0.03 0.04 0.03 0.03 0.05 0.04 0.02 0.05 0.06 0.04 0.05 0.04 0.03 0.02 0.03 0.05 0.06 0.10 0.08 0.09 0.06 0.06 0.04 0.12 0.10 0.15 0.14 0.16 0.05 0.12 0.18 0.15 0.32 0.32 0.29 0.13 0.14 0.22 0.17 0.14 0.10 0.06 0.18 0.20 0.15 0.10 0.07 0.04
0.00 0.00 0.00 0.00 0.00 0.00 0.02 0.01 0.02 0.00 0.08 0.21 0.43 0.65 0.25 0.57 0.28 1.36 0.51 0.60 0.37 0.40 0.34 0.15 0.05 0.01 0.01 0.00 0.00 0.01 0.01 0.00 0.00 0.00 0.00 0.00 0.00 0.00 0.00 0.00 0.01 0.00 0.00 0.01 0.02 0.02 0.02 0.02 0.03 0.02 0.03 0.03 0.03 0.02 0.03 0.03 0.04 0.05 0.04 0.03 0.04 0.02 0.06 0.05 0.03 0.06 0.05 0.04 0.04 0.07 0.18 0.05 0.13 0.17 0.14 0.17 0.10 0.14 0.15 0.18 0.31 0.58 0.59 0.22 0.20 0.31 0.27 0.25 0.17 0.10 0.06 0.12 0.17 0.24 0.05 0.05 0.01
0.00 0.00 0.00 0.00 0.00 0.00 0.00 0.01 0.08 0.00 0.09 0.25 0.38 0.42 0.53 0.34 0.45 0.59 0.31 0.30 0.64 0.31 0.45 0.36 0.08 0.02 0.01 0.00 0.00 0.00 0.01 0.00 0.00 0.00 0.00 0.00 0.00 0.00 0.00 0.00 0.00 0.00 0.03 0.00 0.01 0.01 0.02 0.02 0.03 0.02 0.02 0.03 0.02 0.02 0.02 0.02 0.03 0.02 0.04 0.03 0.02 0.03 0.04 0.04 0.03 0.04 0.02 0.03 0.06 0.06 0.07 0.07 0.08 0.08 0.07 0.11 0.15 0.24 0.25 0.36 0.41 0.36 0.34 0.22 0.29 0.29 0.23 0.26 0.12 0.18 0.14 0.16 0.31 0.29 0.11 0.10 0.03
0.00 0.00 0.00 0.00 0.00 0.01 0.00 0.00 0.01 0.00 0.01 0.07 0.32 0.87 0.79 0.77 0.52 0.53 0.17 0.37 0.33 0.47 0.67 0.56 0.48 0.05 0.00 0.00 0.00 0.01 0.00 0.00 0.00 0.00 0.00 0.00 0.00 0.00 0.00 0.00 0.00 0.00 0.00 0.00 0.00 0.00 0.01 0.01 0.01 0.01 0.02 0.02 0.02 0.02 0.02 0.02 0.02 0.02 0.03 0.02 0.01 0.02 0.02 0.02 0.03 0.03 0.02 0.02 0.05 0.06 0.13 0.09 0.15 0.14 0.14 0.20 0.31 0.29 0.28 0.22 0.52 0.30 0.23 0.27 0.25 0.37 0.28 0.32 0.26 0.18 0.16 0.30 0.14 0.22 0.14 0.08 0.02
0.00 0.00 0.00 0.00 0.01 0.03 0.00 0.00 0.00 0.07 0.02 0.16 0.10 0.93 1.21 0.61 0.40 0.38 0.30 0.55 0.74 0.96 0.55 0.23 0.31 0.19 0.02 0.02 0.00 0.00 0.00 0.00 0.00 0.00 0.00 0.00 0.00 0.00 0.00 0.00 0.00 0.00 0.00 0.00 0.00 0.00 0.01 0.00 0.00 0.02 0.01 0.02 0.03 0.02 0.03 0.02 0.01 0.01 0.01 0.02 0.02 0.02 0.03 0.03 0.06 0.03 0.03 0.03 0.02 0.06 0.11 0.26 0.29 0.18 0.23 0.21 0.20 0.15 0.25 0.36 0.23 0.31 0.26 0.26 0.43 0.23 0.47 0.41 0.26 0.26 0.36 0.47 0.39 0.09 0.09 0.07 0.03
0.00 0.00 0.01 0.00 0.00 0.07 0.00 0.00 0.00 0.04 0.02 0.04 0.04 0.48 0.96 0.68 0.83 0.39 0.38 0.48 0.72 0.54 0.31 0.22 0.26 0.10 0.02 0.01 0.02 0.01 0.01 0.00 0.00 0.00 0.00 0.00 0.00 0.00 0.00 0.00 0.00 0.00 0.00 0.00 0.00 0.00 0.00 0.00 0.00 0.00 0.01 0.02 0.01 0.01 0.02 0.01 0.01 0.01 0.01 0.01 0.02 0.02 0.03 0.06 0.06 0.06 0.04 0.05 0.07 0.09 0.18 0.25 0.28 0.29 0.31 0.22 0.17 0.31 0.22 0.26 0.46 0.42 0.15 0.53 0.36 0.30 0.38 0.26 0.23 0.23 0.24 0.57 0.20 0.11 0.03 0.05 0.04
0.00 0.00 0.00 0.00 0.00 0.06 0.02 0.00 0.00 0.01 0.02 0.03 0.18 0.78 0.38 0.69 0.70 0.55 0.24 0.66 0.48 0.93 0.56 0.28 0.14 0.25 0.06 0.04 0.03 0.03 0.00 0.00 0.00 0.00 0.00 0.00 0.00 0.00 0.00 0.00 0.00 0.00 0.00 0.00 0.00 0.00 0.00 0.00 0.00 0.00 0.00 0.01 0.01 0.02 0.02 0.01 0.01 0.01 0.01 0.02 0.02 0.01 0.03 0.07 0.02 0.09 0.04 0.50 0.61 0.20 0.33 0.22 0.16 0.33 0.30 0.25 0.26 0.37 0.30 0.38 0.34 0.39 0.48 0.49 0.34 0.44 0.42 0.31 0.54 0.25 0.14 0.15 0.14 0.13 0.06 0.05 0.04
0.00 0.00 0.00 0.00 0.00 0.00 0.01 0.01 0.01 0.02 0.02 0.05 0.03 0.46 1.04 0.47 0.37 0.40 0.45 0.26 0.64 1.08 0.68 0.22 0.30 0.33 0.06 0.02 0.03 0.03 0.02 0.01 0.01 0.00 0.00 0.00 0.00 0.00 0.00 0.00 0.00 0.00 0.00 0.00 0.00 0.00 0.00 0.00 0.00 0.00 0.00 0.01 0.01 0.01 0.01 0.01 0.01 0.02 0.02 0.02 0.02 0.03 0.02 0.04 0.13 0.05 0.29 0.28 0.20 0.22 0.26 0.28 0.40 0.27 0.25 0.22 0.25 0.11 0.26 0.40 0.25 0.16 0.22 0.29 0.33 0.37 0.28 0.30 0.23 0.26 0.28 0.17 0.11 0.11 0.11 0.09 0.04
0.00 0.00 0.00 0.00 0.00 0.00 0.03 0.04 0.02 0.00 0.00 0.02 0.10 0.11 0.20 0.57 0.34 0.29 0.35 0.70 0.61 0.51 0.60 0.99 0.30 0.33 0.10 0.08 0.01 0.03 0.03 0.04 0.02 0.00 0.01 0.00 0.00 0.00 0.00 0.00 0.00 0.00 0.00 0.00 0.00 0.00 0.00 0.00 0.00 0.00 0.01 0.00 0.01 0.01 0.01 0.02 0.02 0.02 0.06 0.02 0.02 0.04 0.09 0.08 0.03 0.06 0.10 0.11 0.35 0.29 0.30 0.30 0.29 0.48 0.25 0.23 0.15 0.17 0.21 0.23 0.18 0.30 0.29 0.17 0.27 0.54 0.38 0.33 0.26 0.19 0.21 0.11 0.07 0.15 0.08 0.04 0.02
0.00 0.00 0.00 0.00 0.00 0.00 0.02 0.02 0.00 0.00 0.01 0.05 0.21 0.11 0.11 0.29 0.34 0.43 0.27 0.23 0.46 0.51 0.67 0.85 0.27 0.73 0.23 0.12 0.06 0.05 0.03 0.04 0.02 0.01 0.01 0.00 0.00 0.00 0.00 0.00 0.00 0.00 0.00 0.00 0.00 0.00 0.00 0.00 0.00 0.00 0.01 0.01 0.01 0.01 0.02 0.02 0.02 0.03 0.05 0.02 0.02 0.06 0.03 0.03 0.05 0.06 0.11 0.16 0.22 0.13 0.28 0.42 0.32 0.36 0.17 0.19 0.12 0.20 0.25 0.22 0.25 0.17 0.26 0.25 0.37 0.46 0.21 0.19 0.30 0.19 0.10 0.12 0.16 0.07 0.03 0.01 0.01
0.00 0.00 0.00 0.00 0.00 0.00 0.00 0.00 0.01 0.00 0.01 0.01 0.07 0.05 0.21 0.28 0.32 0.44 0.37 0.46 1.00 0.62 0.53 0.57 0.66 0.42 0.33 0.32 0.15 0.05 0.04 0.03 0.02 0.03 0.01 0.01 0.01 0.01 0.00 0.00 0.00 0.00 0.00 0.00 0.00 0.00 0.00 0.00 0.00 0.01 0.01 0.01 0.01 0.02 0.03 0.02 0.01 0.02 0.04 0.03 0.06 0.07 0.03 0.03 0.03 0.04 0.06 0.04 0.02 0.07 0.16 0.39 0.45 0.49 0.29 0.29 0.15 0.20 0.25 0.42 0.33 0.25 0.21 0.31 0.23 0.29 0.19 0.33 0.15 0.12 0.10 0.08 0.16 0.06 0.05 0.02 0.01
0.00 0.00 0.00 0.00 0.00 0.00 0.00 0.00 0.00 0.01 0.02 0.07 0.01 0.10 0.08 0.19 0.46 0.28 0.23 0.43 0.54 0.60 0.55 0.75 0.48 0.36 0.61 0.51 0.18 0.13 0.12 0.01 0.03 0.00 0.02 0.01 0.01 0.01 0.00 0.00 0.00 0.00 0.00 0.00 0.00 0.00 0.00 0.00 0.00 0.01 0.00 0.01 0.01 0.01 0.01 0.01 0.01 0.01 0.02 0.02 0.02 0.06 0.10 0.09 0.13 0.03 0.05 0.14 0.14 0.10 0.32 0.24 0.35 0.27 0.20 0.24 0.16 0.09 0.17 0.12 0.20 0.21 0.20 0.45 0.23 0.17 0.14 0.07 0.08 0.15 0.06 0.09 0.16 0.07 0.02 0.05 0.01
0.00 0.00 0.00 0.00 0.00 0.00 0.00 0.01 0.00 0.00 0.00 0.01 0.02 0.04 0.12 0.12 0.09 0.60 0.05 0.05 0.07 0.44 0.53 0.78 0.74 0.83 0.40 0.75 0.52 0.69 0.09 0.09 0.01 0.03 0.02 0.02 0.00 0.00 0.00 0.00 0.00 0.00 0.00 0.00 0.00 0.00 0.00 0.00 0.00 0.00 0.01 0.01 0.01 0.00 0.01 0.01 0.01 0.01 0.04 0.03 0.02 0.04 0.09 0.09 0.16 0.09 0.26 0.07 0.11 0.23 0.15 0.36 0.28 0.20 0.24 0.15 0.12 0.13 0.18 0.20 0.28 0.28 0.20 0.15 0.16 0.15 0.12 0.16 0.14 0.11 0.08 0.21 0.09 0.03 0.01 0.01 0.02
0.00 0.00 0.00 0.00 0.00 0.00 0.01 0.00 0.00 0.00 0.00 0.01 0.01 0.02 0.03 0.05 0.04 0.16 0.04 0.06 0.04 0.13 0.34 0.71 0.81 0.68 0.50 0.37 0.49 0.27 0.16 0.08 0.04 0.01 0.03 0.03 0.00 0.00 0.00 0.00 0.00 0.00 0.00 0.00 0.00 0.00 0.00 0.01 0.00 0.01 0.00 0.00 0.00 0.01 0.00 0.01 0.01 0.01 0.01 0.02 0.10 0.07 0.11 0.11 0.23 0.13 0.08 0.09 0.10 0.07 0.09 0.06 0.11 0.16 0.19 0.11 0.14 0.20 0.27 0.25 0.25 0.19 0.15 0.08 0.09 0.27 0.12 0.13 0.12 0.17 0.09 0.11 0.21 0.07 0.03 0.02 0.01
0.00 0.00 0.00 0.00 0.00 0.00 0.00 0.00 0.00 0.00 0.01 0.00 0.00 0.00 0.05 0.02 0.12 0.06 0.10 0.05 0.03 0.04 0.23 0.36 0.82 1.10 0.71 0.64 0.71 0.69 0.36 0.12 0.06 0.04 0.01 0.00 0.01 0.00 0.00 0.00 0.00 0.00 0.00 0.00 0.00 0.00 0.00 0.00 0.00 0.00 0.00 0.00 0.00 0.00 0.01 0.01 0.01 0.02 0.02 0.02 0.10 0.10 0.06 0.07 0.08 0.08 0.06 0.10 0.10 0.07 0.11 0.08 0.16 0.08 0.10 0.13 0.21 0.25 0.14 0.17 0.08 0.08 0.08 0.08 0.09 0.26 0.18 0.16 0.17 0.11 0.13 0.10 0.16 0.23 0.04 0.02 0.02
0.00 0.00 0.00 0.00 0.00 0.00 0.00 0.00 0.00 0.00 0.00 0.00 0.00 0.04 0.01 0.00 0.01 0.02 0.02 0.06 0.03 0.05 0.06 0.12 0.18 0.86 1.00 0.66 0.35 0.31 0.68 0.19 0.09 0.02 0.01 0.00 0.00 0.00 0.00 0.00 0.00 0.00 0.00 0.00 0.00 0.00 0.00 0.00 0.00 0.00 0.01 0.01 0.01 0.01 0.01 0.01 0.03 0.05 0.11 0.16 0.11 0.05 0.09 0.05 0.04 0.03 0.05 0.03 0.19 0.08 0.17 0.17 0.10 0.22 0.11 0.11 0.23 0.20 0.10 0.07 0.06 0.11 0.05 0.10 0.10 0.13 0.10 0.13 0.11 0.15 0.10 0.15 0.08 0.11 0.06 0.01 0.02
0.00 0.00 0.00 0.00 0.00 0.00 0.00 0.00 0.00 0.01 0.01 0.01 0.01 0.00 0.04 0.02 0.02 0.03 0.02 0.04 0.03 0.08 0.05 0.14 0.42 0.40 0.40 0.74 0.70 0.45 0.41 0.60 0.05 0.12 0.04 0.03 0.01 0.01 0.00 0.01 0.00 0.00 0.00 0.00 0.00 0.00 0.00 0.00 0.00 0.00 0.01 0.01 0.01 0.02 0.02 0.03 0.04 0.10 0.05 0.17 0.02 0.04 0.03 0.02 0.02 0.04 0.04 0.02 0.03 0.06 0.06 0.13 0.05 0.11 0.08 0.05 0.06 0.07 0.09 0.08 0.03 0.06 0.06 0.08 0.08 0.14 0.19 0.17 0.14 0.14 0.06 0.05 0.08 0.06 0.02 0.01 0.01
0.00 0.00 0.00 0.00 0.00 0.00 0.00 0.01 0.00 0.00 0.00 0.00 0.00 0.00 0.03 0.03 0.04 0.03 0.01 0.04 0.05 0.14 0.09 0.12 0.21 0.41 0.42 0.36 0.35 0.18 0.43 0.32 0.07 0.13 0.06 0.03 0.01 0.02 0.01 0.00 0.00 0.00 0.00 0.00 0.00 0.00 0.00 0.00 0.00 0.00 0.00 0.00 0.00 0.00 0.02 0.14 0.05 0.02 0.03 0.03 0.03 0.03 0.01 0.01 0.02 0.02 0.02 0.02 0.03 0.01 0.03 0.06 0.03 0.04 0.06 0.03 0.05 0.03 0.08 0.07 0.04 0.06 0.01 0.06 0.06 0.08 0.12 0.11 0.17 0.07 0.07 0.12 0.09 0.04 0.05 0.02 0.02
0.00 0.00 0.00 0.00 0.00 0.00 0.00 0.00 0.00 0.00 0.00 0.07 0.01 0.01 0.03 0.01 0.06 0.04 0.02 0.09 0.30 0.17 0.07 0.07 0.17 0.28 0.32 0.36 0.31 0.22 0.17 0.22 0.22 0.11 0.08 0.07 0.01 0.02 0.02 0.02 0.01 0.00 0.00 0.00 0.00 0.00 0.00 0.00 0.00 0.00 0.00 0.00 0.00 0.00 0.00 0.03 0.04 0.03 0.01 0.02 0.03 0.01 0.01 0.00 0.01 0.01 0.02 0.01 0.02 0.01 0.01 0.03 0.02 0.06 0.05 0.04 0.03 0.03 0.06 0.03 0.06 0.04 0.05 0.05 0.06 0.07 0.05 0.05 0.04 0.07 0.07 0.05 0.04 0.03 0.05 0.01 0.01
0.00 0.00 0.00 0.00 0.00 0.00 0.00 0.00 0.00 0.00 0.00 0.01 0.00 0.00 0.04 0.12 0.04 0.03 0.02 0.18 0.12 0.43 0.14 0.12 0.28 0.17 0.24 0.18 0.25 0.17 0.19 0.20 0.19 0.21 0.14 0.06 0.04 0.02 0.03 0.02 0.05 0.00 0.00 0.00 0.00 0.00 0.00 0.00 0.00 0.00 0.00 0.00 0.00 0.00 0.00 0.00 0.01 0.02 0.01 0.01 0.01 0.01 0.00 0.00 0.00 0.01 0.03 0.01 0.01 0.01 0.02 0.07 0.02 0.04 0.06 0.03 0.04 0.01 0.01 0.04 0.03 0.05 0.05 0.06 0.03 0.03 0.03 0.04 0.03 0.06 0.03 0.05 0.03 0.03 0.02 0.01 0.02
0.00 0.00 0.00 0.00 0.00 0.00 0.00 0.00 0.00 0.01 0.00 0.00 0.00 0.00 0.00 0.20 0.07 0.02 0.15 0.14 0.01 0.10 0.35 0.26 0.24 0.30 0.28 0.11 0.47 0.17 0.15 0.14 0.18 0.18 0.19 0.20 0.04 0.06 0.05 0.06 0.01 0.02 0.03 0.00 0.00 0.00 0.00 0.00 0.00 0.00 0.00 0.00 0.00 0.00 0.00 0.00 0.00 0.01 0.01 0.00 0.01 0.01 0.01 0.01 0.01 0.01 0.01 0.02 0.03 0.04 0.01 0.01 0.03 0.02 0.03 0.02 0.01 0.01 0.01 0.01 0.03 0.04 0.04 0.08 0.02 0.04 0.05 0.04 0.04 0.01 0.02 0.03 0.03 0.06 0.03 0.01 0.01
0.00 0.00 0.00 0.00 0.00 0.00 0.00 0.00 0.00 0.00 0.00 0.00 0.00 0.00 0.00 0.04 0.09 0.12 0.02 0.00 0.04 0.01 0.03 0.05 0.04 0.10 0.14 0.15 0.13 0.17 0.11 0.14 0.17 0.15 0.18 0.15 0.29 0.46 0.04 0.07 0.02 0.06 0.00 0.00 0.00 0.00 0.00 0.00 0.00 0.00 0.00 0.00 0.00 0.00 0.00 0.00 0.00 0.00 0.00 0.00 0.01 0.01 0.01 0.00 0.00 0.00 0.00 0.00 0.00 0.05 0.02 0.01 0.01 0.02 0.03 0.04 0.03 0.00 0.01 0.01 0.02 0.02 0.04 0.05 0.02 0.06 0.03 0.03 0.04 0.02 0.01 0.02 0.03 0.03 0.03 0.03 0.02
0.00 0.00 0.00 0.00 0.00 0.00 0.00 0.00 0.00 0.00 0.00 0.00 0.00 0.00 0.01 0.05 0.06 0.01 0.00 0.00 0.01 0.08 0.04 0.01 0.02 0.01 0.02 0.05 0.04 0.08 0.11 0.19 0.18 0.12 0.17 0.18 0.09 0.18 0.05 0.03 0.01 0.01 0.00 0.00 0.00 0.00 0.00 0.00 0.00 0.00 0.00 0.00 0.00 0.00 0.00 0.00 0.00 0.00 0.00 0.00 0.00 0.01 0.01 0.00 0.00 0.00 0.00 0.00 0.00 0.04 0.01 0.01 0.02 0.01 0.01 0.05 0.02 0.02 0.02 0.00 0.01 0.04 0.02 0.02 0.01 0.05 0.09 0.04 0.06 0.03 0.02 0.01 0.01 0.02 0.02 0.01 0.02
0.00 0.00 0.00 0.00 0.00 0.00 0.00 0.00 0.00 0.00 0.00 0.00 0.00 0.00 0.02 0.03 0.02 0.01 0.00 0.01 0.07 0.01 0.01 0.00 0.02 0.06 0.00 0.02 0.03 0.09 0.16 0.14 0.14 0.13 0.10 0.10 0.12 0.08 0.08 0.17 0.15 0.03 0.02 0.01 0.00 0.00 0.00 0.00 0.00 0.01 0.00 0.00 0.00 0.00 0.00 0.00 0.00 0.00 0.00 0.00 0.00 0.00 0.00 0.00 0.00 0.00 0.00 0.00 0.00 0.00 0.03 0.01 0.01 0.02 0.01 0.00 0.02 0.02 0.01 0.01 0.00 0.00 0.01 0.03 0.02 0.04 0.06 0.03 0.03 0.02 0.03 0.03 0.02 0.01 0.01 0.01 0.02
0.00 0.00 0.00 0.00 0.00 0.00 0.00 0.00 0.00 0.00 0.01 0.00 0.00 0.00 0.01 0.02 0.12 0.01 0.03 0.03 0.01 0.00 0.00 0.01 0.01 0.11 0.00 0.00 0.02 0.04 0.08 0.14 0.21 0.25 0.40 0.24 0.19 0.46 0.68 0.12 0.31 0.14 0.03 0.03 0.01 0.00 0.00 0.00 0.00 0.00 0.01 0.00 0.00 0.00 0.00 0.00 0.00 0.00 0.00 0.00 0.00 0.00 0.00 0.00 0.00 0.00 0.00 0.00 0.00 0.00 0.00 0.04 0.01 0.01 0.00 0.00 0.01 0.00 0.00 0.00 0.00 0.00 0.00 0.02 0.01 0.02 0.03 0.03 0.03 0.02 0.02 0.02 0.02 0.03 0.02 0.02 0.02
0.00 0.00 0.00 0.00 0.00 0.00 0.00 0.00 0.00 0.00 0.00 0.00 0.00 0.06 0.24 0.19 0.05 0.13 0.03 0.00 0.00 0.02 0.01 0.01 0.01 0.01 0.01 0.01 0.02 0.03 0.06 0.11 0.14 0.20 0.43 0.30 0.50 0.27 0.45 0.22 0.11 0.13 0.05 0.04 0.06 0.05 0.01 0.03 0.02 0.01 0.00 0.00 0.00 0.00 0.00 0.00 0.00 0.00 0.00 0.00 0.00 0.00 0.00 0.00 0.00 0.00 0.00 0.00 0.00 0.00 0.00 0.01 0.02 0.01 0.00 0.00 0.00 0.00 0.01 0.01 0.00 0.00 0.01 0.01 0.01 0.01 0.02 0.03 0.03 0.02 0.05 0.02 0.08 0.02 0.01 0.02 0.02
0.00 0.00 0.00 0.00 0.00 0.00 0.00 0.00 0.00 0.00 0.00 0.00 0.00 0.00 0.05 0.03 0.02 0.22 0.36 0.00 0.00 0.00 0.01 0.01 0.01 0.00 0.01 0.04 0.02 0.07 0.05 0.05 0.16 0.16 0.32 0.25 0.20 0.13 0.28 0.13 0.18 0.24 0.10 0.11 0.47 0.48 0.49 0.42 0.33 0.17 0.02 0.05 0.01 0.00 0.00 0.00 0.00 0.00 0.00 0.00 0.00 0.00 0.00 0.00 0.00 0.00 0.00 0.00 0.00 0.00 0.00 0.00 0.01 0.00 0.00 0.00 0.00 0.00 0.00 0.01 0.00 0.01 0.00 0.00 0.02 0.01 0.01 0.03 0.03 0.02 0.06 0.04 0.08 0.02 0.01 0.01 0.02
0.00 0.00 0.00 0.00 0.00 0.00 0.00 0.00 0.00 0.00 0.00 0.01 0.00 0.03 0.05 0.07 0.16 0.08 0.11 0.06 0.00 0.00 0.00 0.00 0.01 0.05 0.09 0.05 0.07 0.04 0.16 0.16 0.10 0.31 0.45 0.71 0.62 0.35 0.40 0.27 0.11 0.14 0.14 0.31 0.47 0.38 0.39 0.57 0.51 0.30 0.07 0.03 0.03 0.00 0.00 0.00 0.00 0.00 0.00 0.00 0.00 0.00 0.00 0.00 0.00 0.00 0.00 0.00 0.00 0.00 0.00 0.00 0.00 0.01 0.00 0.00 0.00 0.00 0.00 0.00 0.00 0.00 0.00 0.00 0.00 0.01 0.02 0.01 0.03 0.02 0.04 0.04 0.01 0.02 0.02 0.02 0.01
0.00 0.00 0.00 0.00 0.01 0.00 0.00 0.00 0.00 0.00 0.00 0.04 0.01 0.04 0.06 0.07 0.09 0.01 0.04 0.00 0.00 0.00 0.00 0.01 0.01 0.00 0.10 0.12 0.22 0.26 0.18 0.22 0.08 0.10 0.34 0.22 0.70 1.69 1.25 0.83 0.30 0.19 0.67 0.78 0.36 0.57 0.59 0.83 0.52 0.62 0.45 0.10 0.05 0.06 0.00 0.00 0.00 0.00 0.00 0.00 0.00 0.00 0.00 0.00 0.00 0.00 0.00 0.00 0.00 0.00 0.00 0.00 0.00 0.00 0.00 0.00 0.00 0.00 0.00 0.00 0.00 0.00 0.00 0.00 0.00 0.01 0.00 0.01 0.02 0.04 0.01 0.05 0.02 0.01 0.02 0.03 0.01
0.00 0.00 0.00 0.00 0.00 0.00 0.00 0.00 0.03 0.00 0.00 0.00 0.22 0.30 0.18 0.11 0.09 0.05 0.02 0.01 0.00 0.00 0.00 0.00 0.01 0.01 0.02 0.04 0.06 0.14 0.05 0.02 0.09 0.32 0.53 0.90 0.30 0.86 0.87 0.72 0.40 0.31 0.52 0.32 0.31 0.74 0.44 0.50 0.50 0.67 0.40 0.29 0.53 0.16 0.03 0.00 0.00 0.00 0.00 0.00 0.00 0.00 0.00 0.00 0.00 0.00 0.00 0.00 0.00 0.00 0.00 0.00 0.00 0.00 0.00 0.00 0.00 0.00 0.00 0.00 0.00 0.00 0.00 0.00 0.00 0.00 0.01 0.01 0.01 0.01 0.01 0.01 0.01 0.01 0.01 0.01 0.01
0.00 0.00 0.00 0.00 0.00 0.00 0.00 0.00 0.01 0.03 0.02 0.00 0.10 0.23 0.30 0.28 0.55 0.46 0.04 0.00 0.00 0.00 0.00 0.00 0.00 0.00 0.00 0.00 0.00 0.00 0.00 0.05 0.03 0.16 0.44 0.61 0.64 0.47 0.56 0.72 0.48 0.45 0.57 0.80 0.58 0.35 0.40 0.24 0.18 0.21 0.19 0.24 0.10 0.06 0.11 0.02 0.01 0.00 0.00 0.00 0.00 0.00 0.00 0.00 0.00 0.00 0.00 0.00 0.00 0.00 0.01 0.00 0.01 0.00 0.00 0.00 0.00 0.00 0.00 0.00 0.00 0.00 0.00 0.00 0.00 0.00 0.00 0.00 0.00 0.00 0.00 0.00 0.01 0.02 0.00 0.00 0.00
0.00 0.00 0.00 0.00 0.01 0.00 0.00 0.00 0.00 0.00 0.00 0.00 0.03 0.19 0.07 0.12 0.09 0.18 0.24 0.00 0.00 0.00 0.00 0.00 0.00 0.00 0.00 0.00 0.00 0.00 0.00 0.00 0.01 0.06 0.11 0.31 0.27 0.23 0.28 0.46 0.73 0.54 0.24 0.44 0.53 0.39 0.51 0.30 0.43 0.18 0.38 0.49 0.37 0.09 0.02 0.04 0.01 0.00 0.01 0.00 0.00 0.00 0.00 0.00 0.00 0.00 0.01 0.01 0.01 0.00 0.00 0.00 0.00 0.00 0.00 0.00 0.00 0.00 0.00 0.00 0.00 0.00 0.00 0.00 0.00 0.00 0.00 0.00 0.00 0.00 0.00 0.00 0.01 0.00 0.01 0.00 0.00